Weather History for Goshen, IN

Change the Weather History Date:

Monday, December 30, 2013

  Actual Average Record
Temperature  
Mean Temperature 20 °F -  
Max Temperature 24 °F 31 °F 54 °F (1965)
Min Temperature 15 °F 17 °F -13 °F (1983)
Degree Days  
Heating Degree Days 46    
Moisture  
Dew Point 12 °F    
Average Humidity 75    
Maximum Humidity 86    
Minimum Humidity 60    
Precipitation  
Precipitation 0.00 in - - ()
Sea Level Pressure  
Sea Level Pressure 30.18 in    
Wind  
Wind Speed 10 mph (West)    
Max Wind Speed 16 mph    
Max Gust Speed -    
Visibility 7 miles    
Events Snow    
Averages and records for this station are not official NWS values.
T = Trace of Precipitation, MM = Missing Value Source: NWS Daily Summary

Daily Weather History Graph

Daily Weather History Graph

Search for Another Location

Airport:

Trip Planner

Search our weather history database for the weather conditions in past years. The results will help you decide how hot, cold, wet, or windy it might be!

Date:

Astronomy

Dec. 30, 2013 Rise Set
Actual Time 8:09 AM EST 5:22 PM EST
Civil Twilight 7:38 AM EST 5:53 PM EST
Nautical Twilight 7:03 AM EST 6:28 PM EST
Astronomical Twilight 6:29 AM EST 7:02 PM EST
Moon 5:57 AM EST (12/30) 3:55 PM EST (12/30)
Length of Visible Light 10h 15m
Length of Day
9h 12m
Waning Crescent, 5% of the Moon is Illuminated
Dec 30
Waning Crescent
Jan 1
New
Jan 7
First Quarter
Jan 15
Full
Jan 24
Last Quarter

Hourly Weather History & Observations

Time (EST) Temp. Windchill Dew Point Humidity Pressure Visibility Wind Dir Wind Speed Gust Speed Precip Events Conditions
12:51 AM 24.8 °F 13.4 °F 17.6 °F 74% 30.06 in 9.0 mi WNW 12.7 mph - 0.00 in Snow Light Snow
12:53 AM 24.1 °F 11.5 °F 17.1 °F 75% 30.09 in 9.0 mi NW 15.0 mph - 0.00 in Snow Light Snow
1:29 AM 23.0 °F 11.1 °F 15.8 °F 74% 30.07 in 6.0 mi NW 12.7 mph - 0.00 in Snow Light Snow
1:53 AM 21.9 °F 10.4 °F 17.1 °F 82% 30.12 in 2.5 mi WNW 11.5 mph - 0.00 in Snow Light Snow
2:01 AM 21.2 °F 9.5 °F 17.6 °F 86% 30.09 in 1.0 mi WNW 11.5 mph - 0.00 in Snow Light Snow
2:08 AM 21.2 °F 9.5 °F 17.6 °F 86% 30.09 in 0.8 mi WNW 11.5 mph - 0.00 in Snow Light Snow
2:32 AM 21.2 °F 7.3 °F 17.6 °F 86% 30.11 in 1.2 mi WNW 16.1 mph - 0.00 in Snow Light Snow
2:39 AM 21.2 °F 8.9 °F 15.8 °F 80% 30.11 in 2.0 mi WNW 12.7 mph - 0.00 in Snow Light Snow
2:50 AM 19.4 °F 7.2 °F 15.8 °F 86% 30.12 in 3.0 mi WNW 11.5 mph - 0.00 in Snow Light Snow
2:53 AM 19.9 °F 7.3 °F 16.0 °F 85% 30.15 in 3.0 mi WNW 12.7 mph - 0.00 in Snow Light Snow
3:36 AM 19.4 °F 8.6 °F 15.8 °F 86% 30.13 in 1.5 mi WNW 9.2 mph - 0.00 in Snow Light Snow
3:47 AM 19.4 °F 7.9 °F 15.8 °F 86% 30.13 in 3.0 mi WNW 10.4 mph - 0.00 in Snow Light Snow
3:53 AM 19.9 °F 8.6 °F 15.1 °F 81% 30.17 in 5.0 mi WNW 10.4 mph - 0.00 in Snow Light Snow
4:53 AM 19.0 °F 9.0 °F 15.1 °F 85% 30.19 in 10.0 mi West 8.1 mph - 0.00 in   Overcast
5:53 AM 18.0 °F 5.4 °F 10.9 °F 74% 30.20 in 10.0 mi West 11.5 mph - N/A   Overcast
6:53 AM 19.0 °F 9.0 °F 12.0 °F 74% 30.22 in 10.0 mi West 8.1 mph - N/A   Overcast
7:53 AM 18.0 °F 5.4 °F 12.0 °F 78% 30.25 in 10.0 mi West 11.5 mph - N/A   Overcast
8:53 AM 17.1 °F 6.6 °F 10.9 °F 77% 30.26 in 10.0 mi WNW 8.1 mph - N/A   Overcast
9:53 AM 17.1 °F 4.3 °F 10.9 °F 77% 30.29 in 10.0 mi WNW 11.5 mph - N/A   Overcast
10:53 AM 18.0 °F 6.9 °F 12.0 °F 78% 30.30 in 10.0 mi NW 9.2 mph - N/A   Overcast
11:53 AM 19.0 °F 11.1 °F 10.9 °F 71% 30.29 in 10.0 mi NW 5.8 mph - N/A   Clear
12:53 PM 19.9 °F 13.4 °F 8.1 °F 60% 30.26 in 10.0 mi NW 4.6 mph - N/A   Scattered Clouds
1:00 PM 19.4 °F 11.5 °F 8.6 °F 63% 30.22 in 10.0 mi WNW 5.8 mph - N/A   Mostly Cloudy
1:53 PM 19.9 °F - 10.0 °F 65% 30.23 in 10.0 mi Calm Calm - N/A   Overcast
2:53 PM 19.9 °F - 10.0 °F 65% 30.21 in 10.0 mi Calm Calm - N/A   Overcast
3:53 PM 21.0 °F 12.4 °F 10.0 °F 63% 30.21 in 10.0 mi SSW 6.9 mph - N/A   Overcast
4:16 PM 21.2 °F 16.4 °F 10.4 °F 63% 30.17 in 10.0 mi WSW 3.5 mph - N/A   Mostly Cloudy
4:53 PM 21.0 °F 13.4 °F 10.9 °F 65% 30.22 in 10.0 mi WSW 5.8 mph - N/A   Overcast
5:53 PM 19.9 °F 10.1 °F 10.9 °F 68% 30.22 in 10.0 mi WSW 8.1 mph - N/A   Mostly Cloudy
6:03 PM 19.4 °F 9.5 °F 10.4 °F 68% 30.17 in 10.0 mi WSW 8.1 mph - N/A   Mostly Cloudy
6:50 PM 19.4 °F 8.6 °F 10.4 °F 68% 30.17 in 10.0 mi WSW 9.2 mph - N/A   Overcast
6:53 PM 19.9 °F 10.1 °F 10.0 °F 65% 30.21 in 10.0 mi WSW 8.1 mph - N/A   Overcast
7:53 PM 19.0 °F 11.1 °F 12.0 °F 74% 30.21 in 10.0 mi West 5.8 mph - N/A   Overcast
8:53 PM 17.1 °F 5.0 °F 10.0 °F 74% 30.21 in 10.0 mi WSW 10.4 mph - N/A   Overcast
9:08 PM 17.6 °F 6.4 °F 10.4 °F 73% 30.17 in 10.0 mi WSW 9.2 mph - N/A   Overcast
9:53 PM 17.1 °F 5.8 °F 9.0 °F 71% 30.19 in 10.0 mi WSW 9.2 mph - N/A   Overcast
10:41 PM 15.8 °F 3.4 °F 10.4 °F 79% 30.15 in 2.0 mi WSW 10.4 mph - 0.00 in Snow Light Snow
10:53 PM 16.0 °F 4.4 °F 10.0 °F 77% 30.19 in 1.5 mi WSW 9.2 mph - 0.00 in Snow Light Snow
11:16 PM 15.8 °F 2.1 °F 10.4 °F 79% 30.15 in 2.5 mi WSW 12.7 mph - 0.00 in Snow Light Snow
11:23 PM 15.8 °F 2.7 °F 10.4 °F 79% 30.15 in 3.0 mi WSW 11.5 mph - 0.00 in Snow Light Snow
11:28 PM 15.8 °F 4.2 °F 10.4 °F 79% 30.15 in 2.5 mi WSW 9.2 mph - 0.00 in Snow Light Snow
11:41 PM 15.8 °F 4.2 °F 10.4 °F 79% 30.15 in 1.2 mi WSW 9.2 mph - 0.00 in Snow Light Snow
11:53 PM 15.1 °F 4.2 °F 10.9 °F 84% 30.19 in 1.2 mi West 8.1 mph - 0.00 in Snow Light Snow